Regional Weather Roundup
Issued by NWS

Home | Current Version | Previous Version | Text Only | Print | Product List | Glossary Off
Versions: 1 2 3 4 5 6 7 8 9 10 11 12 13 14 15 16 17 18 19 20 21 22 23 24 25 26 27 28 29 30 31 32 33 34 35 36 37 38 39 40 41 42 43 44 45 46 47 48 49 50

000
ASUS43 KBIS 011301
RWRND

NORTH DAKOTA REGIONAL WEATHER ROUNDUP
NATIONAL WEATHER SERVICE BISMARCK ND
800 AM CDT WED APR 01 2015

NOTE: "FAIR" INDICATES FEW OR NO CLOUDS BELOW 12,000 FEET WITH NO
SIGNIFICANT WEATHER AND/OR OBSTRUCTIONS TO VISIBILITY.


NDZ001>003-009>011-017-011400-
NORTHWEST NORTH DAKOTA

CITY           SKY/WX    TMP DP  RH WIND       PRES   REMARKS
WILLISTON      PTCLDY    48  37  65 NW12      29.52S
MINOT          PTCLDY    45  34  65 W21       29.38R
MINOT AFB      PTCLDY    35  35  99 NW20      29.37R
$$

NDZ018>021-031>035-040>046-011400-
SOUTHWEST NORTH DAKOTA

CITY           SKY/WX    TMP DP  RH WIND       PRES   REMARKS
BISMARCK       CLOUDY    47  33  58 SW3       29.41R
DICKINSON      CLEAR     49  37  63 NW26G35   29.51R
GARRISON         N/A     47  37  68 NW25G31   29.41R
HETTINGER ARPT PTCLDY    50  38  63 NW25      29.54R
$$

NDZ004>008-012>016-024-026-027-054-011400-
NORTHEAST NORTH DAKOTA

CITY           SKY/WX    TMP DP  RH WIND       PRES   REMARKS
GRAND FORKS    MOCLDY    43  31  62 SE12      29.44F
GRND FRKS AFB  PTCLDY    38  29  70 S10       29.43F
DEVILS LAKE    MOCLDY    39  30  70 SE7       29.36F
$$

NDZ022-023-025-028>030-036>039-047>053-011400-
SOUTHEAST NORTH DAKOTA

CITY           SKY/WX    TMP DP  RH WIND       PRES   REMARKS
FARGO          PTCLDY    52  33  48 SE18G25   29.45F
JAMESTOWN      MOCLDY    46  34  62 S15       29.37F
$$



USA.gov is the U.S. government's official web portal to all federal, state and local government web resources and services.